| time (UTC) | temp F | wind direction | speed MPH | gust MPH | rain 1hr in | rain 24hr in | rain mn in | humidity % | barometer mb |
| 20260506185306 | 69 | 208 | 3.0 | 8.0 | 0.00 | 0.00 | 0.00 | 26 | 1010.1 |
| 20260506184304 | 67 | 279 | 3.0 | 7.0 | 0.00 | 0.00 | 0.00 | 28 | 1010.2 |
| 20260506183804 | 67 | 261 | 3.0 | 8.0 | 0.00 | 0.00 | 0.00 | 27 | 1010.4 |
| 20260506183304 | 67 | 287 | 3.0 | 7.0 | 0.00 | 0.00 | 0.00 | 27 | 1010.4 |
| 20260506182804 | 67 | 280 | 5.0 | 10.0 | 0.00 | 0.00 | 0.00 | 27 | 1010.3 |
| 20260506182306 | 68 | 291 | 4.0 | 9.0 | 0.00 | 0.00 | 0.00 | 27 | 1010.4 |
| 20260506181804 | 69 | 228 | 2.0 | 7.0 | 0.00 | 0.00 | 0.00 | 25 | 1010.4 |
| 20260506181303 | 69 | 274 | 3.0 | 9.0 | 0.00 | 0.00 | 0.00 | 27 | 1010.5 |
| 20260506180304 | 69 | 298 | 6.0 | 9.0 | 0.00 | 0.00 | 0.00 | 26 | 1010.7 |
| 20260506175803 | 70 | 251 | 3.0 | 8.0 | 0.00 | 0.00 | 0.00 | 25 | 1010.6 |
| 20260506174304 | 70 | 290 | 3.0 | 10.0 | 0.00 | 0.00 | 0.00 | 26 | 1010.8 |
| 20260506173304 | 69 | 294 | 3.0 | 7.0 | 0.00 | 0.00 | 0.00 | 27 | 1011.0 |
| 20260506172804 | 69 | 294 | 5.0 | 7.0 | 0.00 | 0.00 | 0.00 | 27 | 1011.0 |
| 20260506172306 | 69 | 279 | 3.0 | 6.0 | 0.00 | 0.00 | 0.00 | 27 | 1011.3 |
| 20260506171303 | 69 | 355 | 2.0 | 8.0 | 0.00 | 0.00 | 0.00 | 29 | 1011.3 |
| 20260506170304 | 68 | 330 | 2.0 | 7.0 | 0.00 | 0.00 | 0.00 | 27 | 1011.5 |
| 20260506165804 | 68 | 307 | 2.0 | 6.0 | 0.00 | 0.00 | 0.00 | 27 | 1011.5 |
| 20260506165305 | 68 | 338 | 3.0 | 6.0 | 0.00 | 0.00 | 0.00 | 26 | 1011.7 |
| 20260506164804 | 68 | 278 | 2.0 | 5.0 | 0.00 | 0.00 | 0.00 | 27 | 1011.7 |
| 20260506163804 | 67 | 336 | 2.0 | 5.0 | 0.00 | 0.00 | 0.00 | 27 | 1011.9 |
| 20260506163303 | 67 | 311 | 3.0 | 8.0 | 0.00 | 0.00 | 0.00 | 26 | 1011.9 |
| 20260506162306 | 67 | 294 | 3.0 | 8.0 | 0.00 | 0.00 | 0.00 | 28 | 1011.9 |
| 20260506161304 | 66 | 282 | 3.0 | 6.0 | 0.00 | 0.00 | 0.00 | 29 | 1012.0 |
| 20260506160804 | 66 | 8 | 2.0 | 6.0 | 0.00 | 0.00 | 0.00 | 28 | 1012.0 |
| 20260506160304 | 66 | 324 | 3.0 | 6.0 | 0.00 | 0.00 | 0.00 | 27 | 1012.4 |
| 20260506155306 | 65 | 291 | 3.0 | 6.0 | 0.00 | 0.00 | 0.00 | 29 | 1012.4 |
| 20260506154804 | 64 | 321 | 2.0 | 5.0 | 0.00 | 0.00 | 0.00 | 29 | 1012.3 |
| 20260506153804 | 63 | 334 | 2.0 | 6.0 | 0.00 | 0.00 | 0.00 | 30 | 1012.5 |
| 20260506152804 | 61 | 311 | 1.0 | 3.0 | 0.00 | 0.00 | 0.00 | 30 | 1012.5 |
| 20260506152306 | 61 | 346 | 1.0 | 5.0 | 0.00 | 0.00 | 0.00 | 31 | 1012.5 |
| 20260506151803 | 60 | 280 | 2.0 | 5.0 | 0.00 | 0.00 | 0.00 | 33 | 1012.6 |
| 20260506151304 | 59 | 283 | 1.0 | 3.0 | 0.00 | 0.00 | 0.00 | 34 | 1012.6 |
| 20260506150305 | 57 | 294 | 2.0 | 6.0 | 0.00 | 0.00 | 0.00 | 33 | 1012.9 |
| 20260506145803 | 57 | 289 | 2.0 | 3.0 | 0.00 | 0.00 | 0.00 | 34 | 1012.9 |
| 20260506145305 | 57 | 297 | 1.0 | 3.0 | 0.00 | 0.00 | 0.00 | 36 | 1013.0 |
| 20260506144304 | 55 | 284 | 2.0 | 3.0 | 0.00 | 0.00 | 0.00 | 37 | 1013.0 |
| 20260506143804 | 54 | 317 | 1.0 | 3.0 | 0.00 | 0.00 | 0.00 | 38 | 1013.0 |
| 20260506143304 | 53 | 290 | 1.0 | 3.0 | 0.00 | 0.00 | 0.00 | 38 | 1012.9 |
| 20260506142804 | 52 | 290 | 1.0 | 2.0 | 0.00 | 0.00 | 0.00 | 40 | 1013.0 |
| 20260506142306 | 51 | 311 | 1.0 | 2.0 | 0.00 | 0.00 | 0.00 | 39 | 1013.3 |
| 20260506141804 | 50 | 299 | 1.0 | 2.0 | 0.00 | 0.00 | 0.00 | 40 | 1013.4 |
| 20260506141304 | 50 | 279 | 1.0 | 2.0 | 0.00 | 0.00 | 0.00 | 42 | 1013.2 |
| 20260506140804 | 49 | 292 | 1.0 | 2.0 | 0.00 | 0.00 | 0.00 | 44 | 1013.5 |
| 20260506140304 | 47 | 348 | 0.0 | 2.0 | 0.00 | 0.00 | 0.00 | 45 | 1013.5 |
| 20260506135804 | 45 | 291 | 1.0 | 2.0 | 0.00 | 0.00 | 0.00 | 48 | 1013.4 |
| 20260506134804 | 41 | 301 | 0.0 | 1.0 | 0.00 | 0.00 | 0.00 | 55 | 1013.4 |
| 20260506134304 | 39 | 290 | 0.0 | 2.0 | 0.00 | 0.00 | 0.00 | 56 | 1013.5 |
| 20260506133804 | 37 | 291 | 0.0 | 1.0 | 0.00 | 0.00 | 0.00 | 57 | 1013.7 |
| 20260506133304 | 36 | 290 | 0.0 | 1.0 | 0.00 | 0.00 | 0.00 | 57 | 1013.6 |
| 20260506132804 | 36 | 286 | 0.0 | 1.0 | 0.00 | 0.00 | 0.00 | 57 | 1013.7 |
| 20260506132307 | 35 | 233 | 0.0 | 1.0 | 0.00 | 0.00 | 0.00 | 57 | 1013.6 |
| 20260506131804 | 35 | 222 | 0.0 | 1.0 | 0.00 | 0.00 | 0.00 | 57 | 1013.5 |
| 20260506131304 | 35 | 222 | 0.0 | 0.0 | 0.00 | 0.00 | 0.00 | 57 | 1013.6 |
| 20260506130804 | 34 | 222 | 0.0 | 0.0 | 0.00 | 0.00 | 0.00 | 57 | 1013.6 |
| 20260506130304 | 34 | 221 | 0.0 | 0.0 | 0.00 | 0.00 | 0.00 | 57 | 1013.8 |
| 20260506125305 | 34 | 256 | 0.0 | 1.0 | 0.00 | 0.00 | 0.00 | 57 | 1013.8 |
| 20260506124304 | 34 | 301 | 0.0 | 0.0 | 0.00 | 0.00 | 0.00 | 57 | 1013.7 |
| 20260506123803 | 34 | 303 | 0.0 | 2.0 | 0.00 | 0.00 | 0.00 | 57 | 1013.9 |
| 20260506123304 | 33 | 277 | 1.0 | 2.0 | 0.00 | 0.00 | 0.00 | 57 | 1013.9 |
| 20260506122804 | 33 | 282 | 1.0 | 2.0 | 0.00 | 0.00 | 0.00 | 56 | 1013.8 |
| 20260506122306 | 33 | 290 | 1.0 | 3.0 | 0.00 | 0.00 | 0.00 | 56 | 1013.7 |
| 20260506121804 | 33 | 288 | 1.0 | 3.0 | 0.00 | 0.00 | 0.00 | 56 | 1013.8 |
| 20260506121304 | 33 | 293 | 1.0 | 2.0 | 0.00 | 0.00 | 0.00 | 56 | 1013.7 |
| 20260506120803 | 33 | 286 | 1.0 | 2.0 | 0.00 | 0.00 | 0.00 | 56 | 1014.0 |
| 20260506115803 | 33 | 261 | 0.0 | 2.0 | 0.00 | 0.00 | 0.00 | 55 | 1014.0 |
| 20260506115306 | 33 | 278 | 1.0 | 3.0 | 0.00 | 0.00 | 0.00 | 55 | 1014.1 |
| 20260506114804 | 33 | 294 | 1.0 | 2.0 | 0.00 | 0.00 | 0.00 | 54 | 1014.0 |
| 20260506114304 | 33 | 294 | 1.0 | 2.0 | 0.00 | 0.00 | 0.00 | 55 | 1014.1 |
| 20260506113804 | 34 | 286 | 2.0 | 3.0 | 0.00 | 0.00 | 0.00 | 55 | 1014.2 |
| 20260506113304 | 34 | 289 | 1.0 | 5.0 | 0.00 | 0.00 | 0.00 | 55 | 1014.2 |
| 20260506112804 | 34 | 296 | 3.0 | 6.0 | 0.00 | 0.00 | 0.00 | 55 | 1014.4 |
| 20260506112306 | 34 | 290 | 3.0 | 6.0 | 0.00 | 0.00 | 0.00 | 55 | 1014.6 |
| 20260506111804 | 34 | 285 | 3.0 | 6.0 | 0.00 | 0.00 | 0.00 | 55 | 1014.6 |
| 20260506110804 | 34 | 281 | 3.0 | 7.0 | 0.00 | 0.00 | 0.00 | 55 | 1014.5 |
| 20260506110304 | 34 | 299 | 3.0 | 6.0 | 0.00 | 0.00 | 0.00 | 55 | 1014.4 |
| 20260506105804 | 34 | 295 | 3.0 | 9.0 | 0.00 | 0.00 | 0.00 | 55 | 1014.6 |
| 20260506105305 | 34 | 293 | 2.0 | 5.0 | 0.00 | 0.00 | 0.00 | 55 | 1014.6 |
| 20260506104804 | 34 | 300 | 1.0 | 5.0 | 0.00 | 0.00 | 0.00 | 54 | 1014.7 |
| 20260506104304 | 34 | 290 | 2.0 | 3.0 | 0.00 | 0.00 | 0.00 | 54 | 1014.7 |
| 20260506103804 | 34 | 299 | 1.0 | 3.0 | 0.00 | 0.00 | 0.00 | 54 | 1014.8 |
| 20260506103304 | 34 | 298 | 1.0 | 5.0 | 0.00 | 0.00 | 0.00 | 54 | 1014.9 |
| 20260506102804 | 34 | 313 | 2.0 | 3.0 | 0.00 | 0.00 | 0.00 | 54 | 1014.9 |
| 20260506102305 | 34 | 296 | 2.0 | 5.0 | 0.00 | 0.00 | 0.00 | 54 | 1015.0 |
| 20260506101804 | 34 | 293 | 2.0 | 3.0 | 0.00 | 0.00 | 0.00 | 54 | 1015.2 |
| 20260506101304 | 34 | 287 | 2.0 | 5.0 | 0.00 | 0.00 | 0.00 | 53 | 1015.0 |
| 20260506100804 | 34 | 295 | 2.0 | 5.0 | 0.00 | 0.00 | 0.00 | 53 | 1015.1 |
| 20260506100303 | 34 | 291 | 1.0 | 5.0 | 0.00 | 0.00 | 0.00 | 53 | 1015.2 |
| 20260506095305 | 34 | 302 | 1.0 | 3.0 | 0.00 | 0.00 | 0.00 | 53 | 1015.5 |
| 20260506094803 | 34 | 290 | 1.0 | 5.0 | 0.00 | 0.00 | 0.00 | 52 | 1015.5 |
| 20260506094304 | 35 | 291 | 1.0 | 2.0 | 0.00 | 0.00 | 0.00 | 52 | 1015.5 |
| 20260506093304 | 35 | 289 | 2.0 | 5.0 | 0.00 | 0.00 | 0.00 | 52 | 1015.4 |
| 20260506092803 | 35 | 299 | 2.0 | 5.0 | 0.00 | 0.00 | 0.00 | 51 | 1015.9 |
| 20260506092306 | 35 | 275 | 1.0 | 5.0 | 0.00 | 0.00 | 0.00 | 52 | 1015.9 |
| 20260506091803 | 35 | 293 | 3.0 | 6.0 | 0.00 | 0.00 | 0.00 | 51 | 1015.8 |
| 20260506091303 | 35 | 286 | 2.0 | 5.0 | 0.00 | 0.00 | 0.00 | 51 | 1015.8 |
| 20260506090304 | 35 | 279 | 3.0 | 7.0 | 0.00 | 0.00 | 0.00 | 51 | 1016.0 |
| 20260506085803 | 35 | 290 | 3.0 | 8.0 | 0.00 | 0.00 | 0.00 | 51 | 1016.1 |
| 20260506084804 | 35 | 264 | 5.0 | 9.0 | 0.00 | 0.00 | 0.00 | 51 | 1016.0 |
| 20260506083804 | 35 | 301 | 5.0 | 8.0 | 0.00 | 0.00 | 0.00 | 51 | 1016.2 |
| 20260506082305 | 36 | 302 | 5.0 | 10.0 | 0.00 | 0.00 | 0.00 | 50 | 1016.3 |
| 20260506081804 | 36 | 288 | 5.0 | 12.0 | 0.00 | 0.00 | 0.00 | 49 | 1016.5 |
| 20260506081304 | 36 | 292 | 4.0 | 8.0 | 0.00 | 0.00 | 0.00 | 50 | 1016.7 |
| 20260506080804 | 36 | 292 | 3.0 | 6.0 | 0.00 | 0.00 | 0.00 | 50 | 1016.7 |
| 20260506080304 | 36 | 274 | 3.0 | 6.0 | 0.00 | 0.00 | 0.00 | 49 | 1016.7 |
| 20260506073303 | 36 | 252 | 2.0 | 6.0 | 0.00 | 0.00 | 0.00 | 49 | 1017.0 |
| 20260506072305 | 37 | 276 | 2.0 | 5.0 | 0.00 | 0.00 | 0.00 | 48 | 1017.0 |
| 20260506071803 | 37 | 263 | 2.0 | 6.0 | 0.00 | 0.00 | 0.00 | 48 | 1017.1 |
| 20260506071304 | 37 | 302 | 3.0 | 7.0 | 0.00 | 0.00 | 0.00 | 48 | 1017.1 |
| 20260506070804 | 37 | 285 | 2.0 | 5.0 | 0.00 | 0.00 | 0.00 | 48 | 1017.4 |
| 20260506070303 | 37 | 290 | 3.0 | 7.0 | 0.00 | 0.00 | 0.00 | 47 | 1017.3 |
| 20260506061804 | 38 | 276 | 3.0 | 9.0 | 0.00 | 0.00 | 0.00 | 46 | 1017.8 |
| 20260506061304 | 38 | 279 | 3.0 | 8.0 | 0.00 | 0.00 | 0.00 | 45 | 1017.9 |
| 20260506060804 | 38 | 273 | 2.0 | 7.0 | 0.00 | 0.00 | 0.00 | 44 | 1018.0 |
| 20260506060304 | 38 | 279 | 3.0 | 7.0 | 0.00 | 0.00 | 0.00 | 45 | 1017.7 |
| 20260506050804 | 40 | 275 | 2.0 | 7.0 | 0.00 | 0.00 | 0.00 | 44 | 1018.3 |
| 20260506050304 | 40 | 304 | 2.0 | 5.0 | 0.00 | 0.00 | 0.00 | 44 | 1018.3 |
| 20260506043804 | 40 | 285 | 2.0 | 6.0 | 0.00 | 0.00 | 0.00 | 43 | 1018.2 |
| 20260506042305 | 41 | 273 | 2.0 | 5.0 | 0.00 | 0.00 | 0.00 | 42 | 1018.4 |
| 20260506041804 | 41 | 268 | 2.0 | 5.0 | 0.00 | 0.00 | 0.00 | 41 | 1018.7 |
| 20260506041304 | 42 | 287 | 2.0 | 3.0 | 0.00 | 0.00 | 0.00 | 40 | 1018.6 |
| 20260506040304 | 42 | 276 | 1.0 | 5.0 | 0.00 | 0.00 | 0.00 | 40 | 1018.7 |
| 20260506035306 | 42 | 265 | 3.0 | 6.0 | 0.00 | 0.00 | 0.00 | 39 | 1018.7 |
| 20260506034804 | 43 | 261 | 0.0 | 6.0 | 0.00 | 0.00 | 0.00 | 39 | 1018.6 |
| 20260506034304 | 43 | 293 | 3.0 | 8.0 | 0.00 | 0.00 | 0.00 | 38 | 1018.6 |
| 20260506033804 | 43 | 268 | 3.0 | 8.0 | 0.00 | 0.00 | 0.00 | 38 | 1018.7 |
| 20260506032804 | 44 | 282 | 3.0 | 7.0 | 0.00 | 0.00 | 0.00 | 38 | 1018.6 |
| 20260506031804 | 44 | 260 | 2.0 | 6.0 | 0.00 | 0.00 | 0.00 | 37 | 1018.4 |
| 20260506031304 | 44 | 261 | 2.0 | 6.0 | 0.00 | 0.00 | 0.00 | 37 | 1018.5 |
| 20260506030804 | 44 | 239 | 2.0 | 6.0 | 0.00 | 0.00 | 0.00 | 37 | 1018.4 |
| 20260506030304 | 45 | 243 | 2.0 | 5.0 | 0.00 | 0.00 | 0.00 | 37 | 1018.4 |
| 20260506025306 | 45 | 258 | 3.0 | 7.0 | 0.00 | 0.00 | 0.00 | 35 | 1018.3 |
| 20260506024803 | 45 | 271 | 2.0 | 7.0 | 0.00 | 0.00 | 0.00 | 35 | 1018.4 |
| 20260506024304 | 46 | 214 | 2.0 | 5.0 | 0.00 | 0.00 | 0.00 | 34 | 1018.2 |
| 20260506023804 | 46 | 258 | 3.0 | 8.0 | 0.00 | 0.00 | 0.00 | 33 | 1018.4 |
| 20260506021804 | 47 | 244 | 2.0 | 5.0 | 0.00 | 0.00 | 0.00 | 32 | 1018.3 |
| 20260506021304 | 47 | 227 | 3.0 | 6.0 | 0.00 | 0.00 | 0.00 | 31 | 1018.3 |
| 20260506020804 | 47 | 288 | 1.0 | 7.0 | 0.00 | 0.00 | 0.00 | 31 | 1018.4 |
| 20260506020304 | 48 | 215 | 2.0 | 7.0 | 0.00 | 0.00 | 0.00 | 31 | 1018.3 |
| 20260506015306 | 48 | 141 | 2.0 | 5.0 | 0.00 | 0.00 | 0.00 | 30 | 1018.2 |
| 20260506014803 | 48 | 238 | 2.0 | 7.0 | 0.00 | 0.00 | 0.00 | 30 | 1018.2 |
| 20260506013804 | 48 | 225 | 2.0 | 5.0 | 0.00 | 0.00 | 0.00 | 29 | 1018.3 |
| 20260506013304 | 48 | 225 | 1.0 | 5.0 | 0.00 | 0.00 | 0.00 | 29 | 1018.3 |
| 20260506012804 | 49 | 243 | 2.0 | 5.0 | 0.00 | 0.00 | 0.00 | 29 | 1018.5 |
| 20260506012307 | 49 | 275 | 2.0 | 6.0 | 0.00 | 0.00 | 0.00 | 29 | 1018.4 |
| 20260506011804 | 49 | 117 | 1.0 | 5.0 | 0.00 | 0.00 | 0.00 | 28 | 1018.4 |
| 20260506010804 | 49 | 239 | 2.0 | 6.0 | 0.00 | 0.00 | 0.00 | 29 | 1018.6 |
| 20260506010304 | 49 | 138 | 1.0 | 7.0 | 0.00 | 0.00 | 0.00 | 29 | 1018.6 |
| 20260506005804 | 49 | 120 | 2.0 | 7.0 | 0.00 | 0.00 | 0.00 | 28 | 1018.6 |
| 20260506005306 | 49 | 238 | 2.0 | 5.0 | 0.00 | 0.00 | 0.00 | 29 | 1018.5 |
| 20260506004805 | 49 | 144 | 2.0 | 5.0 | 0.00 | 0.00 | 0.00 | 28 | 1018.5 |
| 20260506003804 | 50 | 260 | 2.0 | 6.0 | 0.00 | 0.00 | 0.00 | 28 | 1018.4 |
| 20260506003304 | 49 | 243 | 3.0 | 6.0 | 0.00 | 0.00 | 0.00 | 28 | 1018.5 |
| 20260506002805 | 50 | 208 | 1.0 | 7.0 | 0.00 | 0.00 | 0.00 | 28 | 1018.7 |
| 20260506002306 | 50 | 209 | 1.0 | 2.0 | 0.00 | 0.00 | 0.00 | 28 | 1018.5 |
| 20260506001804 | 50 | 193 | 2.0 | 7.0 | 0.00 | 0.00 | 0.00 | 28 | 1018.8 |
| 20260506000804 | 50 | 110 | 3.0 | 6.0 | 0.00 | 0.00 | 0.00 | 29 | 1018.7 |
| 20260506000303 | 50 | 247 | 2.0 | 7.0 | 0.00 | 0.00 | 0.00 | 28 | 1018.8 |
| 20260505235305 | 50 | 198 | 2.0 | 7.0 | 0.00 | 0.00 | 0.00 | 28 | 1018.9 |
| 20260505234304 | 50 | 200 | 2.0 | 5.0 | 0.00 | 0.00 | 0.00 | 29 | 1018.8 |
| 20260505233804 | 50 | 139 | 3.0 | 5.0 | 0.00 | 0.00 | 0.00 | 28 | 1019.0 |
| 20260505233304 | 50 | 200 | 3.0 | 9.0 | 0.00 | 0.00 | 0.00 | 28 | 1018.9 |
| 20260505232803 | 50 | 212 | 3.0 | 9.0 | 0.00 | 0.00 | 0.00 | 29 | 1018.9 |
| 20260505232305 | 50 | 97 | 4.0 | 9.0 | 0.00 | 0.00 | 0.00 | 28 | 1018.9 |
| 20260505231304 | 50 | 143 | 3.0 | 8.0 | 0.00 | 0.00 | 0.00 | 30 | 1019.2 |
| 20260505230304 | 50 | 106 | 1.0 | 7.0 | 0.00 | 0.00 | 0.00 | 31 | 1019.2 |
| 20260505225804 | 50 | 99 | 4.0 | 10.0 | 0.00 | 0.00 | 0.00 | 30 | 1019.2 |
| 20260505225306 | 50 | 124 | 3.0 | 8.0 | 0.00 | 0.00 | 0.00 | 30 | 1019.3 |
| 20260505224804 | 50 | 133 | 3.0 | 8.0 | 0.00 | 0.00 | 0.00 | 31 | 1019.4 |
| 20260505224304 | 50 | 145 | 3.0 | 6.0 | 0.00 | 0.00 | 0.00 | 31 | 1019.4 |
| 20260505223804 | 50 | 166 | 2.0 | 9.0 | 0.00 | 0.00 | 0.00 | 30 | 1019.4 |
| 20260505223304 | 50 | 220 | 3.0 | 9.0 | 0.00 | 0.00 | 0.00 | 31 | 1019.5 |
| 20260505222804 | 50 | 167 | 3.0 | 8.0 | 0.00 | 0.00 | 0.00 | 31 | 1019.5 |
| 20260505222306 | 50 | 123 | 2.0 | 7.0 | 0.00 | 0.00 | 0.00 | 31 | 1019.6 |
| 20260505221804 | 50 | 91 | 5.0 | 10.0 | 0.00 | 0.00 | 0.00 | 32 | 1019.6 |
| 20260505221304 | 50 | 136 | 2.0 | 8.0 | 0.00 | 0.00 | 0.00 | 33 | 1019.9 |
| 20260505220304 | 49 | 124 | 3.0 | 8.0 | 0.00 | 0.00 | 0.00 | 32 | 1019.9 |
| 20260505215804 | 49 | 187 | 2.0 | 8.0 | 0.00 | 0.00 | 0.00 | 33 | 1020.0 |
| 20260505214304 | 50 | 93 | 2.0 | 7.0 | 0.00 | 0.00 | 0.00 | 32 | 1020.1 |
| 20260505213804 | 50 | 121 | 4.0 | 9.0 | 0.00 | 0.00 | 0.00 | 33 | 1020.2 |
| 20260505213304 | 50 | 203 | 3.0 | 7.0 | 0.00 | 0.00 | 0.00 | 33 | 1020.1 |
| 20260505212804 | 50 | 182 | 3.0 | 10.0 | 0.00 | 0.00 | 0.00 | 32 | 1020.2 |
| 20260505212305 | 51 | 124 | 5.0 | 10.0 | 0.00 | 0.00 | 0.00 | 33 | 1020.2 |
| 20260505210303 | 49 | 111 | 4.0 | 10.0 | 0.00 | 0.00 | 0.00 | 34 | 1020.6 |
| 20260505205803 | 50 | 161 | 4.0 | 10.0 | 0.00 | 0.00 | 0.00 | 33 | 1020.5 |
| 20260505205305 | 50 | 150 | 4.0 | 15.0 | 0.00 | 0.00 | 0.00 | 33 | 1020.4 |
| 20260505204804 | 50 | 106 | 3.0 | 9.0 | 0.00 | 0.00 | 0.00 | 33 | 1020.4 |
| 20260505204304 | 50 | 226 | 2.0 | 5.0 | 0.00 | 0.00 | 0.00 | 32 | 1020.5 |
| 20260505203804 | 51 | 130 | 4.0 | 9.0 | 0.00 | 0.00 | 0.00 | 33 | 1020.5 |
| 20260505203304 | 51 | 150 | 3.0 | 8.0 | 0.00 | 0.00 | 0.00 | 34 | 1020.6 |
| 20260505202804 | 50 | 112 | 6.0 | 14.0 | 0.00 | 0.00 | 0.00 | 33 | 1020.6 |
| 20260505202306 | 51 | 104 | 3.0 | 7.0 | 0.00 | 0.00 | 0.00 | 32 | 1020.7 |
| 20260505201804 | 51 | 352 | 2.0 | 8.0 | 0.00 | 0.00 | 0.00 | 32 | 1020.7 |
| 20260505201304 | 51 | 94 | 1.0 | 9.0 | 0.00 | 0.00 | 0.00 | 32 | 1020.7 |
| 20260505200803 | 52 | 172 | 4.0 | 9.0 | 0.00 | 0.00 | 0.00 | 33 | 1020.7 |
| 20260505195804 | 51 | 79 | 4.0 | 10.0 | 0.00 | 0.00 | 0.00 | 32 | 1020.7 |
| 20260505195305 | 50 | 102 | 3.0 | 10.0 | 0.00 | 0.00 | 0.00 | 34 | 1020.9 |
| 20260505194804 | 50 | 132 | 4.0 | 9.0 | 0.00 | 0.00 | 0.00 | 33 | 1020.7 |
| 20260505194304 | 50 | 149 | 2.0 | 7.0 | 0.00 | 0.00 | 0.00 | 34 | 1020.8 |
| 20260505193803 | 49 | 120 | 2.0 | 8.0 | 0.00 | 0.00 | 0.00 | 34 | 1020.8 |
| 20260505192804 | 51 | 143 | 5.0 | 13.0 | 0.00 | 0.00 | 0.00 | 32 | 1020.9 |
| 20260505192305 | 51 | 206 | 3.0 | 6.0 | 0.00 | 0.00 | 0.00 | 32 | 1020.9 |
| 20260505191803 | 50 | 102 | 2.0 | 8.0 | 0.00 | 0.00 | 0.00 | 34 | 1021.2 |
| 20260505191304 | 50 | 114 | 3.0 | 7.0 | 0.00 | 0.00 | 0.00 | 32 | 1021.1 |
| 20260505190804 | 51 | 105 | 5.0 | 10.0 | 0.00 | 0.00 | 0.00 | 33 | 1021.0 |
| 20260505185804 | 50 | 186 | 3.0 | 6.0 | 0.00 | 0.00 | 0.00 | 34 | 1020.9 |